Regional Weather Roundup
Issued by NWS

Home | Current Version | Previous Version | Graphics & Text | Print | Product List | Glossary On
Versions: 1 2 3 4 5 6 7 8 9 10 11 12 13 14 15 16 17 18 19 20 21 22 23 24 25 26 27 28 29 30 31 32 33 34 35 36 37 38 39 40 41 42 43 44 45
000
ASUS45 KBOU 020207
RWRCO

WEATHER ROUNDUP FOR COLORADO
NATIONAL WEATHER SERVICE DENVER/BOULDER CO
800 PM MDT WED OCT 01 2014

NOTE: "FAIR" INDICATES FEW OR NO CLOUDS BELOW 12000 FEET WITH NO
SIGNIFICANT WEATHER AND/OR OBSTRUCTIONS TO VISIBILITY.

COZ001>005-013-030-031-020300-
...NORTHWEST COLORADO...

CITY           SKY/WX    TMP DP  RH WIND       PRES   REMARKS
CRAIG          MOCLDY    39  35  86 CALM      30.12R
HAYDEN         MOCLDY    37  34  87 CALM      30.11R
MEEKER         CLOUDY    40  35  83 NE6       30.12R
MOUNT WERNER   NOT AVBL
STEAMBOAT SPGS CLOUDY    36  34  93 CALM      30.11R
WALDEN         CLOUDY    34  32  93 N5        30.09R WCI  30
$$

COZ006>008-011-020300-
...WEST CENTRAL VALLEYS...

CITY           SKY/WX    TMP DP  RH WIND       PRES   REMARKS
GRAND JUNCTION LGT RAIN  47  41  80 N17       30.09R
MONTROSE       PTCLDY    44  41  89 CALM      30.10R
EAGLE          CLOUDY    39  37  93 SW12      30.12R
RIFLE          CLOUDY    42  38  85 SE7       30.10S
DELTA          RAIN      50  47  88 CALM      30.09R
NUCLA          MOCLDY    45  39  81 N7        30.12R
$$

COZ017>023-064>068-020300-
...SOUTHWEST COLORADO...

CITY           SKY/WX    TMP DP  RH WIND       PRES   REMARKS
DURANGO        CLEAR     52  34  50 W9        30.03R
CORTEZ         CLEAR     52  38  58 N9        30.04R
PAGOSA SPRINGS CLEAR     44  40  88 CALM      30.08R
TELLURIDE      CLOUDY   N/A N/A N/A CALM      30.15R
WOLF CREEK PAS NOT AVBL
$$

COZ009-010-012-014-032>034-037-058>063-020300-
...CENTRAL COLORADO...

CITY           SKY/WX    TMP DP  RH WIND       PRES   REMARKS
ASPEN          LGT SNOW  33  32  96 N7        30.12R VSB 1   WCI  27
BUENA VISTA    CLOUDY    46  31  57 W18       30.03R
COPPER MTN     HVY SNOW  32  28  86 W15       30.15S VSB<1/4 WCI  22
BERTHOUD PASS  FOG       23  21  93 W12       30.16S VSB<1/4 WCI  12
COTTONWOOD PAS LGT SNOW  37  32  81 W16G25    30.09R
GUNNISON       MOCLDY    41  32  70 SW10      30.11R
KREMMLING      CLOUDY    36  32  87 S5        30.10R
LEADVILLE      FLURRIES  33  30  88 N8        30.09R WCI  26
SALIDA         MOCLDY    48  32  53 W22       30.11R
SUNLIGHT       SNOW      30  28  93 CALM      30.19R VSB 1/4
WILKERSON PASS NOT AVBL
$$

COZ069>075-020300-
...SAN LUIS VALLEY/SANGRE DE CRISTO MOUNTAINS...

CITY           SKY/WX    TMP DP  RH WIND       PRES   REMARKS
ALAMOSA        PTCLDY    42  36  79 E7        30.04R
LA VETA PASS   MOCLDY    37  30  75 S14G33    30.09F
SAGUACHE       MOCLDY    45  36  70 W7        30.07R
$$

COZ035-036-038>040-020300-
...NORTHERN COLORADO FRONT RANGE...

CITY           SKY/WX    TMP DP  RH WIND       PRES   REMARKS
DENVER INTL AP MOCLDY    44  41  89 N9        30.02R
DMNS CITY PARK   N/A     47  38  71 N6        30.03R
AURORA         NOT AVBL
FRONT RANGE AP NOT AVBL
ERIE MUNI ARPT CLOUDY    46  39  78 N3        30.02R
BOULDER MUN AP CLOUDY    46  39  76 E3        30.02R
CENTENNIAL     LGT RAIN  44  41  89 N9        30.02R
BROOMFIELD     MOCLDY    45  37  76 N9        30.03R
FORT COLLINS   MOCLDY    45  37  76 NE13      30.02S
LONGMONT       CLOUDY    48  40  73 E6        30.04R
$$

COZ041-046-047-076>085-087-088-020300-
...PIKES PEAK/PALMER DIVIDE AND SOUTHERN FOOTHILLS...

CITY           SKY/WX    TMP DP  RH WIND       PRES   REMARKS
COLO. SPRINGS  CLOUDY    49  41  74 NW20G26   29.99R
A. F. ACADEMY  DRIZZLE   45  41  87 N21       30.01R
ELLICOTT       NOT AVBL
FALCON         CLOUDY    42  41  95 N20G29    30.00R
FORT CARSON    CLOUDY    51  43  73 N23G31    29.95R
LIMON          CLOUDY    44  42  93 N21       29.98R
MONUMENT HILL  SNOW      37  37 100 N10G17    30.03R VSB 1/4
TRINIDAD       PTCLDY    60  33  36 W10       29.92R
$$

COZ042>045-048>051-090-091-020300-
...NORTHEAST COLORADO...

CITY           SKY/WX    TMP DP  RH WIND       PRES   REMARKS
GREELEY ARPT   MOCLDY    45  36  70 N7        30.02R
AKRON          MOCLDY    44  43  96 N23G32    29.96S
BURLINGTON     LGT RAIN  51  45  79 N13       29.91R
WRAY           RAIN      50  48  90 NW24G40   29.93R
STERLING       LGT RAIN  50  46  87 N17G28    29.97R
HOLYOKE        TSTM      54  50  87 NW25G33   29.96R
FORT MORGAN    MOCLDY    44  41  89 N12       29.98R
$$

COZ086-089-092>099-020300-
...SOUTHEAST COLORADO...

CITY           SKY/WX    TMP DP  RH WIND       PRES   REMARKS
PUEBLO         CLOUDY    62  40  44 SE3       29.87R
LA JUNTA       CLOUDY    67  41  38 NW12G23   29.84R
LAMAR          MOCLDY    64  50  60 NE6       29.75R
SPRINGFIELD      N/A     59  37  44 SE10      29.80S
$$



USA.gov is the U.S. government's official web portal to all federal, state and local government web resources and services.